Time,TemperatureF,DewpointF,PressureIn,WindDirection,WindDirectionDegrees,WindSpeedMPH,WindSpeedGustMPH,Humidity,HourlyPrecipIn,Conditions,Clouds,dailyrainin,SoftwareType,DateUTC
2013-02-22 00:00:00,41.9,37.4,30.11,West,271,4.0,15.0,84,-0.05,,,0.00,Weather View 32 v70,2013-02-22 08:00:00,
2013-02-22 00:05:00,41.9,37.1,30.11,West,281,6.0,15.0,83,-0.05,,,0.00,Weather View 32 v70,2013-02-22 08:05:00,
2013-02-22 00:10:00,42.1,37.3,30.11,West,281,1.0,15.0,83,-0.05,,,0.00,Weather View 32 v70,2013-02-22 08:10:00,
2013-02-22 00:15:00,42.1,37.3,30.11,WSW,254,5.0,15.0,83,-0.05,,,0.00,Weather View 32 v70,2013-02-22 08:15:00,
2013-02-22 00:20:00,41.9,37.1,30.11,WSW,242,3.0,15.0,83,-0.05,,,0.00,Weather View 32 v70,2013-02-22 08:20:00,
2013-02-22 00:25:00,42.1,37.0,30.11,West,273,4.0,15.0,82,-0.05,,,0.00,Weather View 32 v70,2013-02-22 08:25:00,
2013-02-22 00:30:00,42.2,37.1,30.11,NW,304,4.0,15.0,82,-0.05,,,0.00,Weather View 32 v70,2013-02-22 08:30:00,
2013-02-22 00:35:00,42.2,37.1,30.11,WNW,284,5.0,15.0,82,-0.05,,,0.00,Weather View 32 v70,2013-02-22 08:35:00,
2013-02-22 00:40:00,42.2,37.1,30.11,West,268,3.0,15.0,82,-0.05,,,0.00,Weather View 32 v70,2013-02-22 08:40:00,
2013-02-22 00:45:00,42.2,37.4,30.11,West,273,8.0,15.0,83,-0.05,,,0.00,Weather View 32 v70,2013-02-22 08:45:00,
2013-02-22 00:50:00,42.1,37.3,30.11,West,273,6.0,14.0,83,-0.05,,,0.00,Weather View 32 v70,2013-02-22 08:50:00,
2013-02-22 00:55:00,41.9,37.1,30.11,West,280,2.0,14.0,83,-0.05,,,0.00,Weather View 32 v70,2013-02-22 08:55:00,
2013-02-22 01:00:00,41.8,37.3,30.10,NW,306,0.0,14.0,84,0.00,,,0.00,Weather View 32 v70,2013-02-22 09:00:00,
2013-02-22 01:05:00,41.8,37.3,30.10,WNW,300,2.0,14.0,84,0.00,,,0.00,Weather View 32 v70,2013-02-22 09:05:00,
2013-02-22 01:10:00,41.9,37.4,30.11,WNW,291,3.0,14.0,84,0.00,,,0.00,Weather View 32 v70,2013-02-22 09:10:00,
2013-02-22 01:15:00,41.9,37.4,30.10,WNW,293,4.0,14.0,84,0.00,,,0.00,Weather View 32 v70,2013-02-22 09:15:00,
2013-02-22 01:20:00,42.1,37.3,30.11,WNW,284,4.0,14.0,83,0.00,,,0.00,Weather View 32 v70,2013-02-22 09:20:00,
2013-02-22 01:25:00,42.2,37.4,30.11,WSW,250,2.0,14.0,83,0.00,,,0.00,Weather View 32 v70,2013-02-22 09:25:00,
2013-02-22 01:30:00,42.2,37.4,30.11,WNW,287,4.0,14.0,83,0.00,,,0.00,Weather View 32 v70,2013-02-22 09:30:00,
2013-02-22 01:35:00,42.2,37.4,30.11,WNW,284,8.0,14.0,83,0.00,,,0.00,Weather View 32 v70,2013-02-22 09:35:00,
2013-02-22 01:40:00,42.2,37.4,30.10,WNW,298,5.0,14.0,83,0.00,,,0.00,Weather View 32 v70,2013-02-22 09:40:00,
2013-02-22 01:45:00,42.2,37.4,30.11,NNW,327,3.0,14.0,83,0.00,,,0.00,Weather View 32 v70,2013-02-22 09:45:00,
2013-02-22 01:50:00,42.3,37.2,30.10,WNW,294,8.0,14.0,82,0.00,,,0.00,Weather View 32 v70,2013-02-22 09:50:00,
2013-02-22 01:55:00,42.3,37.2,30.10,WNW,284,6.0,12.0,82,0.00,,,0.00,Weather View 32 v70,2013-02-22 09:55:00,
2013-02-22 02:00:00,42.3,37.2,30.10,WNW,287,3.0,12.0,82,0.00,,,0.00,Weather View 32 v70,2013-02-22 10:00:00,
2013-02-22 02:05:00,42.3,37.2,30.10,NW,306,5.0,12.0,82,0.00,,,0.00,Weather View 32 v70,2013-02-22 10:05:00,
2013-02-22 02:10:00,42.3,37.2,30.10,WNW,296,4.0,12.0,82,0.00,,,0.00,Weather View 32 v70,2013-02-22 10:10:00,
2013-02-22 02:15:00,42.3,37.2,30.10,West,275,3.0,12.0,82,0.00,,,0.00,Weather View 32 v70,2013-02-22 10:15:00,
2013-02-22 02:20:00,42.3,37.2,30.10,WNW,298,3.0,12.0,82,0.00,,,0.00,Weather View 32 v70,2013-02-22 10:20:00,
2013-02-22 02:25:00,42.3,37.2,30.10,WNW,289,2.0,12.0,82,0.00,,,0.00,Weather View 32 v70,2013-02-22 10:25:00,
2013-02-22 02:30:00,42.3,37.2,30.10,West,271,3.0,12.0,82,0.01,,,0.01,Weather View 32 v70,2013-02-22 10:30:00,
2013-02-22 02:35:00,42.5,37.1,30.10,WNW,293,4.0,12.0,81,0.01,,,0.01,Weather View 32 v70,2013-02-22 10:35:00,
2013-02-22 02:40:00,42.5,37.1,30.10,WNW,288,0.0,12.0,81,0.01,,,0.01,Weather View 32 v70,2013-02-22 10:40:00,
2013-02-22 02:45:00,42.5,37.1,30.09,West,281,1.0,12.0,81,0.01,,,0.01,Weather View 32 v70,2013-02-22 10:45:00,
2013-02-22 02:50:00,42.5,37.1,30.09,West,280,4.0,12.0,81,0.01,,,0.01,Weather View 32 v70,2013-02-22 10:50:00,
2013-02-22 02:55:00,42.6,37.2,30.09,West,272,7.0,12.0,81,0.01,,,0.01,Weather View 32 v70,2013-02-22 10:55:00,
2013-02-22 03:00:00,42.8,37.1,30.08,WNW,284,5.0,12.0,80,0.01,,,0.01,Weather View 32 v70,2013-02-22 11:00:00,
2013-02-22 03:05:00,42.8,37.4,30.08,WNW,284,9.0,12.0,81,0.01,,,0.01,Weather View 32 v70,2013-02-22 11:05:00,
2013-02-22 03:10:00,42.6,37.2,30.08,WNW,296,3.0,12.0,81,0.01,,,0.01,Weather View 32 v70,2013-02-22 11:10:00,
2013-02-22 03:15:00,42.6,37.2,30.08,WNW,286,4.0,12.0,81,0.01,,,0.01,Weather View 32 v70,2013-02-22 11:15:00,
2013-02-22 03:20:00,42.5,37.4,30.07,NW,306,2.0,12.0,82,0.01,,,0.01,Weather View 32 v70,2013-02-22 11:20:00,
2013-02-22 03:25:00,42.5,37.1,30.07,West,277,3.0,12.0,81,0.01,,,0.01,Weather View 32 v70,2013-02-22 11:25:00,
2013-02-22 03:30:00,42.6,37.2,30.08,West,281,3.0,12.0,81,0.00,,,0.01,Weather View 32 v70,2013-02-22 11:30:00,
2013-02-22 03:35:00,42.6,37.2,30.08,West,263,4.0,12.0,81,0.00,,,0.01,Weather View 32 v70,2013-02-22 11:35:00,
2013-02-22 03:40:00,42.6,37.2,30.08,West,276,6.0,12.0,81,0.00,,,0.01,Weather View 32 v70,2013-02-22 11:40:00,
2013-02-22 03:45:00,42.6,37.5,30.08,WSW,252,9.0,12.0,82,0.00,,,0.01,Weather View 32 v70,2013-02-22 11:45:00,
2013-02-22 03:50:00,42.5,37.4,30.08,NW,304,3.0,12.0,82,0.00,,,0.01,Weather View 32 v70,2013-02-22 11:50:00,
2013-02-22 03:55:00,42.5,37.7,30.08,West,273,8.0,12.0,83,0.00,,,0.01,Weather View 32 v70,2013-02-22 11:55:00,
2013-02-22 04:00:00,42.5,37.7,30.08,West,270,3.0,12.0,83,0.00,,,0.01,Weather View 32 v70,2013-02-22 12:00:00,
2013-02-22 04:05:00,42.5,37.7,30.08,NW,304,2.0,12.0,83,0.00,,,0.01,Weather View 32 v70,2013-02-22 12:05:00,
2013-02-22 04:10:00,42.5,37.7,30.07,West,280,4.0,11.0,83,0.00,,,0.01,Weather View 32 v70,2013-02-22 12:10:00,
2013-02-22 04:15:00,42.5,37.7,30.07,WNW,296,0.0,11.0,83,0.00,,,0.01,Weather View 32 v70,2013-02-22 12:15:00,
2013-02-22 04:20:00,42.5,37.7,30.07,WNW,286,6.0,11.0,83,0.00,,,0.01,Weather View 32 v70,2013-02-22 12:20:00,
2013-02-22 04:25:00,42.5,37.7,30.07,West,267,7.0,11.0,83,0.00,,,0.01,Weather View 32 v70,2013-02-22 12:25:00,
2013-02-22 04:30:00,42.5,37.7,30.06,NW,306,7.0,11.0,83,0.00,,,0.01,Weather View 32 v70,2013-02-22 12:30:00,
2013-02-22 04:35:00,42.5,37.7,30.06,WNW,290,6.0,13.0,83,0.00,,,0.01,Weather View 32 v70,2013-02-22 12:35:00,
2013-02-22 04:40:00,42.8,37.7,30.06,West,279,7.0,13.0,82,0.00,,,0.01,Weather View 32 v70,2013-02-22 12:40:00,
2013-02-22 04:45:00,42.8,37.7,30.06,West,280,3.0,13.0,82,0.00,,,0.01,Weather View 32 v70,2013-02-22 12:45:00,
2013-02-22 04:50:00,42.8,37.7,30.06,WSW,239,3.0,13.0,82,0.00,,,0.01,Weather View 32 v70,2013-02-22 12:50:00,
2013-02-22 04:55:00,42.8,37.4,30.05,West,268,5.0,13.0,81,0.00,,,0.01,Weather View 32 v70,2013-02-22 12:55:00,
2013-02-22 05:00:00,42.8,37.4,30.05,West,279,2.0,13.0,81,0.00,,,0.01,Weather View 32 v70,2013-02-22 13:00:00,
2013-02-22 05:05:00,42.6,37.5,30.05,West,267,5.0,13.0,82,0.00,,,0.01,Weather View 32 v70,2013-02-22 13:05:00,
2013-02-22 05:10:00,42.5,37.4,30.05,West,259,0.0,13.0,82,0.00,,,0.01,Weather View 32 v70,2013-02-22 13:10:00,
2013-02-22 05:15:00,42.1,37.3,30.05,West,259,0.0,13.0,83,0.00,,,0.01,Weather View 32 v70,2013-02-22 13:15:00,
2013-02-22 05:20:00,41.9,37.4,30.05,West,273,5.0,13.0,84,0.00,,,0.01,Weather View 32 v70,2013-02-22 13:20:00,
2013-02-22 05:25:00,42.2,37.4,30.05,WSW,254,0.0,13.0,83,0.00,,,0.01,Weather View 32 v70,2013-02-22 13:25:00,
2013-02-22 05:30:00,42.5,37.7,30.05,WSW,254,5.0,13.0,83,0.00,,,0.01,Weather View 32 v70,2013-02-22 13:30:00,
2013-02-22 05:35:00,42.6,37.8,30.05,West,261,0.0,13.0,83,0.00,,,0.01,Weather View 32 v70,2013-02-22 13:35:00,
2013-02-22 05:40:00,42.6,37.8,30.05,West,261,0.0,12.0,83,0.00,,,0.01,Weather View 32 v70,2013-02-22 13:40:00,
2013-02-22 05:45:00,42.5,38.0,30.05,West,261,0.0,12.0,84,0.00,,,0.01,Weather View 32 v70,2013-02-22 13:45:00,
2013-02-22 05:50:00,42.5,38.0,30.05,West,261,0.0,11.0,84,0.00,,,0.01,Weather View 32 v70,2013-02-22 13:50:00,
2013-02-22 05:55:00,42.3,37.8,30.05,West,261,0.0,10.0,84,0.00,,,0.01,Weather View 32 v70,2013-02-22 13:55:00,
2013-02-22 06:00:00,42.3,37.8,30.05,West,261,0.0,10.0,84,0.00,,,0.02,Weather View 32 v70,2013-02-22 14:00:00,
2013-02-22 06:05:00,42.1,37.6,30.05,West,261,0.0,10.0,84,0.01,,,0.02,Weather View 32 v70,2013-02-22 14:05:00,
2013-02-22 06:10:00,41.8,37.6,30.05,West,261,0.0,10.0,85,0.01,,,0.02,Weather View 32 v70,2013-02-22 14:10:00,
2013-02-22 06:15:00,41.5,37.3,30.04,West,261,0.0,10.0,85,0.01,,,0.02,Weather View 32 v70,2013-02-22 14:15:00,
2013-02-22 06:20:00,41.2,37.3,30.04,West,261,0.0,8.0,86,0.01,,,0.02,Weather View 32 v70,2013-02-22 14:20:00,
2013-02-22 06:25:00,40.8,37.2,30.04,West,261,0.0,8.0,87,0.01,,,0.02,Weather View 32 v70,2013-02-22 14:25:00,
2013-02-22 06:30:00,40.6,37.3,30.04,West,261,0.0,8.0,88,0.01,,,0.02,Weather View 32 v70,2013-02-22 14:30:00,
2013-02-22 06:35:00,40.5,37.2,30.04,West,261,0.0,4.0,88,0.01,,,0.02,Weather View 32 v70,2013-02-22 14:35:00,
2013-02-22 06:40:00,40.5,37.2,30.04,West,261,0.0,4.0,88,0.01,,,0.02,Weather View 32 v70,2013-02-22 14:40:00,
2013-02-22 06:45:00,40.3,37.0,30.04,West,261,0.0,4.0,88,0.01,,,0.02,Weather View 32 v70,2013-02-22 14:45:00,
2013-02-22 06:50:00,40.3,37.3,30.04,West,261,0.0,4.0,89,0.01,,,0.02,Weather View 32 v70,2013-02-22 14:50:00,
2013-02-22 06:55:00,40.3,37.3,30.03,West,261,0.0,2.0,89,0.02,,,0.03,Weather View 32 v70,2013-02-22 14:55:00,
2013-02-22 07:00:00,40.3,37.3,30.03,West,261,0.0,2.0,89,0.02,,,0.03,Weather View 32 v70,2013-02-22 15:00:00,
2013-02-22 07:05:00,40.3,37.6,30.02,West,261,0.0,2.0,90,0.01,,,0.03,Weather View 32 v70,2013-02-22 15:05:00,
2013-02-22 07:10:00,40.3,37.6,30.02,West,261,0.0,2.0,90,0.02,,,0.04,Weather View 32 v70,2013-02-22 15:10:00,
2013-02-22 07:15:00,40.3,37.6,30.03,West,261,0.0,2.0,90,0.02,,,0.04,Weather View 32 v70,2013-02-22 15:15:00,
2013-02-22 07:20:00,40.5,37.8,30.03,West,261,0.0,0.0,90,0.02,,,0.04,Weather View 32 v70,2013-02-22 15:20:00,
2013-02-22 07:25:00,40.5,37.8,30.03,West,261,0.0,0.0,90,0.02,,,0.04,Weather View 32 v70,2013-02-22 15:25:00,
2013-02-22 07:30:00,40.5,37.8,30.03,West,261,0.0,0.0,90,0.02,,,0.04,Weather View 32 v70,2013-02-22 15:30:00,
2013-02-22 07:35:00,40.5,37.8,30.02,West,261,0.0,0.0,90,0.02,,,0.04,Weather View 32 v70,2013-02-22 15:35:00,
2013-02-22 07:40:00,40.6,37.9,30.02,West,261,0.0,0.0,90,0.02,,,0.04,Weather View 32 v70,2013-02-22 15:40:00,
2013-02-22 07:45:00,40.6,37.9,30.02,West,261,0.0,0.0,90,0.02,,,0.04,Weather View 32 v70,2013-02-22 15:45:00,
2013-02-22 07:50:00,40.8,38.4,30.01,West,261,0.0,0.0,91,0.02,,,0.04,Weather View 32 v70,2013-02-22 15:50:00,
2013-02-22 07:55:00,40.9,38.5,30.01,West,261,0.0,0.0,91,0.01,,,0.04,Weather View 32 v70,2013-02-22 15:55:00,
2013-02-22 08:00:00,41.1,38.7,30.01,West,261,0.0,0.0,91,0.01,,,0.04,Weather View 32 v70,2013-02-22 16:00:00,
2013-02-22 08:05:00,41.1,38.7,30.01,West,261,0.0,0.0,91,0.01,,,0.04,Weather View 32 v70,2013-02-22 16:05:00,
2013-02-22 08:10:00,41.2,38.8,30.01,West,261,0.0,0.0,91,0.00,,,0.04,Weather View 32 v70,2013-02-22 16:10:00,
2013-02-22 08:15:00,41.5,39.1,30.01,West,261,0.0,0.0,91,0.00,,,0.04,Weather View 32 v70,2013-02-22 16:15:00,
2013-02-22 08:20:00,41.6,39.2,30.01,West,261,0.0,0.0,91,0.00,,,0.04,Weather View 32 v70,2013-02-22 16:20:00,
2013-02-22 08:25:00,41.8,39.4,30.00,West,261,0.0,0.0,91,0.00,,,0.04,Weather View 32 v70,2013-02-22 16:25:00,
2013-02-22 08:30:00,41.8,39.4,30.00,West,261,0.0,0.0,91,0.00,,,0.04,Weather View 32 v70,2013-02-22 16:30:00,
2013-02-22 08:35:00,41.8,39.4,30.00,West,261,0.0,2.0,91,0.00,,,0.04,Weather View 32 v70,2013-02-22 16:35:00,
2013-02-22 08:40:00,41.8,39.4,30.00,West,261,0.0,2.0,91,0.00,,,0.04,Weather View 32 v70,2013-02-22 16:40:00,
2013-02-22 08:45:00,41.9,39.2,29.99,WNW,285,0.0,5.0,90,0.00,,,0.04,Weather View 32 v70,2013-02-22 16:45:00,
2013-02-22 08:50:00,42.1,39.4,29.99,WNW,285,0.0,5.0,90,0.00,,,0.04,Weather View 32 v70,2013-02-22 16:50:00,
2013-02-22 08:55:00,42.1,39.4,29.99,WNW,285,0.0,5.0,90,0.01,,,0.05,Weather View 32 v70,2013-02-22 16:55:00,
2013-02-22 09:00:00,42.1,39.4,30.00,WNW,285,0.0,5.0,90,0.01,,,0.05,Weather View 32 v70,2013-02-22 17:00:00,
2013-02-22 09:05:00,42.1,39.4,30.00,WNW,285,0.0,5.0,90,0.01,,,0.05,Weather View 32 v70,2013-02-22 17:05:00,
2013-02-22 09:10:00,42.1,39.4,30.00,WNW,285,0.0,5.0,90,0.01,,,0.05,Weather View 32 v70,2013-02-22 17:10:00,
2013-02-22 09:15:00,42.1,39.4,30.00,WNW,288,2.0,5.0,90,0.02,,,0.06,Weather View 32 v70,2013-02-22 17:15:00,
2013-02-22 09:20:00,42.2,39.2,29.99,WNW,292,4.0,5.0,89,0.02,,,0.07,Weather View 32 v70,2013-02-22 17:20:00,
2013-02-22 09:25:00,42.3,39.3,30.00,WNW,286,1.0,6.0,89,0.03,,,0.07,Weather View 32 v70,2013-02-22 17:25:00,
2013-02-22 09:30:00,42.3,39.0,30.00,WNW,282,3.0,8.0,88,0.04,,,0.08,Weather View 32 v70,2013-02-22 17:30:00,
2013-02-22 09:35:00,42.3,38.7,30.00,WNW,282,3.0,8.0,87,0.04,,,0.08,Weather View 32 v70,2013-02-22 17:35:00,
2013-02-22 09:40:00,42.3,38.4,30.00,West,279,0.0,9.0,86,0.06,,,0.10,Weather View 32 v70,2013-02-22 17:40:00,
2013-02-22 09:45:00,42.2,38.3,29.99,WNW,284,0.0,9.0,86,0.06,,,0.10,Weather View 32 v70,2013-02-22 17:45:00,
2013-02-22 09:50:00,42.2,38.3,29.99,West,280,2.0,9.0,86,0.06,,,0.11,Weather View 32 v70,2013-02-22 17:50:00,
2013-02-22 09:55:00,42.1,38.2,29.99,WNW,288,3.0,9.0,86,0.07,,,0.12,Weather View 32 v70,2013-02-22 17:55:00,
2013-02-22 10:00:00,42.1,38.5,29.99,WNW,288,0.0,9.0,87,0.08,,,0.13,Weather View 32 v70,2013-02-22 18:00:00,
2013-02-22 10:05:00,41.9,38.3,29.98,WNW,288,0.0,9.0,87,0.08,,,0.13,Weather View 32 v70,2013-02-22 18:05:00,
2013-02-22 10:10:00,41.9,38.3,29.98,WNW,288,0.0,9.0,87,0.09,,,0.14,Weather View 32 v70,2013-02-22 18:10:00,
2013-02-22 10:15:00,42.1,38.8,29.97,WNW,288,0.0,9.0,88,0.08,,,0.14,Weather View 32 v70,2013-02-22 18:15:00,
2013-02-22 10:20:00,42.2,38.9,29.97,WNW,288,0.0,9.0,88,0.08,,,0.14,Weather View 32 v70,2013-02-22 18:20:00,
2013-02-22 10:25:00,42.3,39.0,29.96,WNW,288,0.0,9.0,88,0.07,,,0.14,Weather View 32 v70,2013-02-22 18:25:00,
2013-02-22 10:30:00,42.3,38.7,29.96,WNW,288,0.0,9.0,87,0.06,,,0.14,Weather View 32 v70,2013-02-22 18:30:00,
2013-02-22 10:35:00,42.5,38.9,29.96,WNW,288,0.0,9.0,87,0.06,,,0.14,Weather View 32 v70,2013-02-22 18:35:00,
2013-02-22 10:40:00,42.8,39.2,29.95,WNW,288,0.0,8.0,87,0.04,,,0.14,Weather View 32 v70,2013-02-22 18:40:00,
2013-02-22 10:45:00,42.9,39.3,29.95,WNW,288,0.0,8.0,87,0.04,,,0.14,Weather View 32 v70,2013-02-22 18:45:00,
2013-02-22 10:50:00,42.9,39.3,29.95,WNW,288,0.0,6.0,87,0.04,,,0.14,Weather View 32 v70,2013-02-22 18:50:00,
2013-02-22 10:55:00,42.9,39.3,29.95,WNW,288,0.0,5.0,87,0.02,,,0.14,Weather View 32 v70,2013-02-22 18:55:00,
2013-02-22 11:00:00,43.1,39.5,29.95,WNW,288,0.0,0.0,87,0.01,,,0.14,Weather View 32 v70,2013-02-22 19:00:00,
2013-02-22 11:05:00,43.1,39.8,29.95,WNW,288,0.0,0.0,88,0.01,,,0.14,Weather View 32 v70,2013-02-22 19:05:00,
2013-02-22 11:10:00,43.1,39.8,29.94,NW,310,0.0,0.0,88,0.00,,,0.14,Weather View 32 v70,2013-02-22 19:10:00,
2013-02-22 11:15:00,42.8,39.5,29.94,NW,312,0.0,2.0,88,0.00,,,0.14,Weather View 32 v70,2013-02-22 19:15:00,
2013-02-22 11:20:00,42.8,39.5,29.94,NW,314,0.0,2.0,88,0.00,,,0.14,Weather View 32 v70,2013-02-22 19:20:00,
2013-02-22 11:25:00,42.8,39.8,29.94,NW,314,0.0,2.0,89,0.00,,,0.14,Weather View 32 v70,2013-02-22 19:25:00,
2013-02-22 11:30:00,42.8,39.8,29.94,NW,314,0.0,2.0,89,0.01,,,0.15,Weather View 32 v70,2013-02-22 19:30:00,
2013-02-22 11:35:00,42.8,39.8,29.94,NW,314,0.0,2.0,89,0.01,,,0.15,Weather View 32 v70,2013-02-22 19:35:00,
2013-02-22 11:40:00,42.8,39.8,29.93,NW,314,0.0,2.0,89,0.01,,,0.15,Weather View 32 v70,2013-02-22 19:40:00,
2013-02-22 11:45:00,42.8,39.8,29.93,NW,314,0.0,2.0,89,0.02,,,0.16,Weather View 32 v70,2013-02-22 19:45:00,
2013-02-22 11:50:00,42.8,39.8,29.92,NW,314,0.0,2.0,89,0.02,,,0.16,Weather View 32 v70,2013-02-22 19:50:00,
2013-02-22 11:55:00,42.9,40.2,29.92,NW,314,0.0,2.0,90,0.03,,,0.17,Weather View 32 v70,2013-02-22 19:55:00,
2013-02-22 12:00:00,42.9,40.2,29.92,NW,314,0.0,2.0,90,0.03,,,0.17,Weather View 32 v70,2013-02-22 20:00:00,
2013-02-22 12:05:00,42.9,40.2,29.91,NW,314,0.0,2.0,90,0.03,,,0.17,Weather View 32 v70,2013-02-22 20:05:00,
2013-02-22 12:10:00,42.8,40.1,29.91,NW,315,0.0,3.0,90,0.04,,,0.18,Weather View 32 v70,2013-02-22 20:10:00,
2013-02-22 12:15:00,42.8,40.1,29.90,NW,315,0.0,3.0,90,0.04,,,0.18,Weather View 32 v70,2013-02-22 20:15:00,
2013-02-22 12:20:00,42.8,40.1,29.90,NW,315,0.0,3.0,90,0.04,,,0.18,Weather View 32 v70,2013-02-22 20:20:00,
2013-02-22 12:25:00,42.9,40.5,29.90,NW,315,0.0,3.0,91,0.05,,,0.19,Weather View 32 v70,2013-02-22 20:25:00,
2013-02-22 12:30:00,43.1,40.6,29.90,SSW,205,2.0,4.0,91,0.04,,,0.19,Weather View 32 v70,2013-02-22 20:30:00,
2013-02-22 12:35:00,43.3,40.8,29.89,South,180,0.0,10.0,91,0.05,,,0.20,Weather View 32 v70,2013-02-22 20:35:00,
2013-02-22 12:40:00,43.6,41.1,29.89,WNW,298,4.0,10.0,91,0.05,,,0.20,Weather View 32 v70,2013-02-22 20:40:00,
2013-02-22 12:45:00,43.9,41.2,29.88,WSW,243,3.0,10.0,90,0.04,,,0.20,Weather View 32 v70,2013-02-22 20:45:00,
2013-02-22 12:50:00,44.2,41.2,29.88,NW,313,2.0,10.0,89,0.05,,,0.21,Weather View 32 v70,2013-02-22 20:50:00,
2013-02-22 12:55:00,44.3,41.0,29.88,West,271,0.0,10.0,88,0.04,,,0.21,Weather View 32 v70,2013-02-22 20:55:00,
2013-02-22 13:00:00,44.3,41.0,29.87,NW,306,5.0,10.0,88,0.04,,,0.21,Weather View 32 v70,2013-02-22 21:00:00,
2013-02-22 13:05:00,44.3,41.0,29.87,NW,309,2.0,10.0,88,0.05,,,0.22,Weather View 32 v70,2013-02-22 21:05:00,
2013-02-22 13:10:00,44.3,40.7,29.87,WNW,285,5.0,11.0,87,0.04,,,0.22,Weather View 32 v70,2013-02-22 21:10:00,
2013-02-22 13:15:00,44.5,40.3,29.87,WNW,297,4.0,12.0,85,0.05,,,0.23,Weather View 32 v70,2013-02-22 21:15:00,
2013-02-22 13:20:00,44.5,40.3,29.87,WNW,300,5.0,12.0,85,0.05,,,0.24,Weather View 32 v70,2013-02-22 21:20:00,
2013-02-22 13:25:00,44.5,40.3,29.87,WNW,294,4.0,12.0,85,0.05,,,0.24,Weather View 32 v70,2013-02-22 21:25:00,
2013-02-22 13:30:00,44.3,40.1,29.86,West,270,8.0,13.0,85,0.06,,,0.25,Weather View 32 v70,2013-02-22 21:30:00,
2013-02-22 13:35:00,44.2,39.7,29.87,West,277,6.0,15.0,84,0.05,,,0.25,Weather View 32 v70,2013-02-22 21:35:00,
2013-02-22 13:40:00,44.1,39.6,29.87,West,269,11.0,19.0,84,0.06,,,0.26,Weather View 32 v70,2013-02-22 21:40:00,
2013-02-22 13:45:00,43.9,39.7,29.87,West,275,5.0,19.0,85,0.07,,,0.27,Weather View 32 v70,2013-02-22 21:45:00,
2013-02-22 13:50:00,43.8,39.6,29.87,WNW,288,5.0,19.0,85,0.07,,,0.28,Weather View 32 v70,2013-02-22 21:50:00,
2013-02-22 13:55:00,43.6,39.4,29.87,West,281,11.0,19.0,85,0.07,,,0.29,Weather View 32 v70,2013-02-22 21:55:00,
2013-02-22 14:00:00,43.5,39.3,29.87,WNW,285,7.0,19.0,85,0.09,,,0.30,Weather View 32 v70,2013-02-22 22:00:00,
2013-02-22 14:05:00,43.3,39.1,29.87,West,273,14.0,19.0,85,0.09,,,0.31,Weather View 32 v70,2013-02-22 22:05:00,
2013-02-22 14:10:00,43.2,39.0,29.87,WNW,302,10.0,20.0,85,0.10,,,0.32,Weather View 32 v70,2013-02-22 22:10:00,
2013-02-22 14:15:00,42.9,38.7,29.85,WNW,292,3.0,20.0,85,0.10,,,0.33,Weather View 32 v70,2013-02-22 22:15:00,
2013-02-22 14:20:00,42.9,39.0,29.86,West,275,8.0,20.0,86,0.11,,,0.34,Weather View 32 v70,2013-02-22 22:20:00,
2013-02-22 14:25:00,42.9,39.0,29.85,West,278,5.0,20.0,86,0.10,,,0.34,Weather View 32 v70,2013-02-22 22:25:00,
2013-02-22 14:30:00,43.1,38.9,29.85,West,259,7.0,20.0,85,0.10,,,0.35,Weather View 32 v70,2013-02-22 22:30:00,
2013-02-22 14:35:00,43.1,39.2,29.85,WNW,285,4.0,20.0,86,0.10,,,0.35,Weather View 32 v70,2013-02-22 22:35:00,
2013-02-22 14:40:00,43.2,39.3,29.85,West,263,4.0,20.0,86,0.09,,,0.35,Weather View 32 v70,2013-02-22 22:40:00,
2013-02-22 14:45:00,43.2,39.3,29.84,West,276,1.0,20.0,86,0.08,,,0.35,Weather View 32 v70,2013-02-22 22:45:00,
2013-02-22 14:50:00,43.2,39.0,29.84,West,260,3.0,20.0,85,0.08,,,0.36,Weather View 32 v70,2013-02-22 22:50:00,
2013-02-22 14:55:00,43.3,39.1,29.84,West,278,6.0,20.0,85,0.08,,,0.36,Weather View 32 v70,2013-02-22 22:55:00,
2013-02-22 15:00:00,43.3,39.1,29.83,WNW,288,7.0,20.0,85,0.06,,,0.36,Weather View 32 v70,2013-02-22 23:00:00,
2013-02-22 15:05:00,43.3,39.1,29.83,WSW,257,5.0,20.0,85,0.05,,,0.36,Weather View 32 v70,2013-02-22 23:05:00,
2013-02-22 15:10:00,43.2,39.0,29.83,WSW,252,7.0,19.0,85,0.04,,,0.36,Weather View 32 v70,2013-02-22 23:10:00,
2013-02-22 15:15:00,43.2,39.0,29.82,West,281,7.0,19.0,85,0.03,,,0.36,Weather View 32 v70,2013-02-22 23:15:00,
2013-02-22 15:20:00,43.3,38.8,29.82,SW,224,8.0,19.0,84,0.02,,,0.36,Weather View 32 v70,2013-02-22 23:20:00,
2013-02-22 15:25:00,43.3,38.8,29.81,West,281,6.0,17.0,84,0.02,,,0.36,Weather View 32 v70,2013-02-22 23:25:00,
2013-02-22 15:30:00,43.3,38.8,29.81,WNW,282,8.0,17.0,84,0.01,,,0.36,Weather View 32 v70,2013-02-22 23:30:00,
2013-02-22 15:35:00,43.5,39.0,29.81,WSW,248,6.0,17.0,84,0.01,,,0.36,Weather View 32 v70,2013-02-22 23:35:00,
2013-02-22 15:40:00,43.5,39.0,29.80,West,267,2.0,17.0,84,0.01,,,0.36,Weather View 32 v70,2013-02-22 23:40:00,
2013-02-22 15:45:00,43.5,39.0,29.80,West,271,9.0,17.0,84,0.01,,,0.36,Weather View 32 v70,2013-02-22 23:45:00,
2013-02-22 15:50:00,43.6,39.1,29.80,WSW,257,7.0,19.0,84,0.00,,,0.36,Weather View 32 v70,2013-02-22 23:50:00,
2013-02-22 15:55:00,43.6,39.1,29.79,West,280,11.0,19.0,84,0.00,,,0.36,Weather View 32 v70,2013-02-22 23:55:00,
2013-02-22 16:00:00,43.6,39.1,29.79,West,263,4.0,19.0,84,0.00,,,0.36,Weather View 32 v70,2013-02-23 00:00:00,
2013-02-22 16:05:00,43.8,39.0,29.79,West,277,6.0,19.0,83,0.01,,,0.37,Weather View 32 v70,2013-02-23 00:05:00,
2013-02-22 16:10:00,43.9,39.1,29.79,WNW,285,5.0,19.0,83,0.01,,,0.37,Weather View 32 v70,2013-02-23 00:10:00,
2013-02-22 16:15:00,44.1,39.3,29.80,WNW,294,4.0,19.0,83,0.01,,,0.37,Weather View 32 v70,2013-02-23 00:15:00,
2013-02-22 16:20:00,44.1,39.3,29.80,WNW,293,7.0,19.0,83,0.01,,,0.37,Weather View 32 v70,2013-02-23 00:20:00,
2013-02-22 16:25:00,44.1,39.3,29.80,NW,304,6.0,19.0,83,0.01,,,0.37,Weather View 32 v70,2013-02-23 00:25:00,
2013-02-22 16:30:00,44.1,39.0,29.80,WNW,289,5.0,19.0,82,0.01,,,0.37,Weather View 32 v70,2013-02-23 00:30:00,
2013-02-22 16:35:00,44.1,39.0,29.80,WNW,291,12.0,19.0,82,0.02,,,0.38,Weather View 32 v70,2013-02-23 00:35:00,
2013-02-22 16:40:00,44.1,39.0,29.79,West,266,9.0,19.0,82,0.02,,,0.38,Weather View 32 v70,2013-02-23 00:40:00,
2013-02-22 16:45:00,44.1,39.0,29.80,West,263,8.0,19.0,82,0.02,,,0.38,Weather View 32 v70,2013-02-23 00:45:00,
2013-02-22 16:50:00,44.1,39.0,29.80,WSW,238,9.0,20.0,82,0.02,,,0.38,Weather View 32 v70,2013-02-23 00:50:00,
2013-02-22 16:55:00,44.2,38.7,29.80,NNW,338,6.0,26.0,81,0.02,,,0.38,Weather View 32 v70,2013-02-23 00:55:00,
2013-02-22 17:00:00,44.1,39.0,29.81,WSW,239,7.0,26.0,82,0.02,,,0.38,Weather View 32 v70,2013-02-23 01:00:00,
2013-02-22 17:05:00,44.2,39.0,29.81,West,277,3.0,26.0,82,0.01,,,0.38,Weather View 32 v70,2013-02-23 01:05:00,
2013-02-22 17:10:00,44.3,38.8,29.81,WNW,300,3.0,26.0,81,0.01,,,0.38,Weather View 32 v70,2013-02-23 01:10:00,
2013-02-22 17:15:00,44.6,38.8,29.81,West,278,5.0,26.0,80,0.01,,,0.38,Weather View 32 v70,2013-02-23 01:15:00,
2013-02-22 17:20:00,44.6,38.8,29.81,WNW,286,3.0,26.0,80,0.01,,,0.38,Weather View 32 v70,2013-02-23 01:20:00,
2013-02-22 17:25:00,44.6,38.5,29.81,West,277,6.0,26.0,79,0.01,,,0.38,Weather View 32 v70,2013-02-23 01:25:00,
2013-02-22 17:30:00,44.8,38.3,29.82,West,266,6.0,26.0,78,0.01,,,0.38,Weather View 32 v70,2013-02-23 01:30:00,
2013-02-22 17:35:00,44.8,38.3,29.82,WNW,288,10.0,26.0,78,0.00,,,0.38,Weather View 32 v70,2013-02-23 01:35:00,
2013-02-22 17:40:00,44.8,38.3,29.82,WNW,292,6.0,26.0,78,0.00,,,0.38,Weather View 32 v70,2013-02-23 01:40:00,
2013-02-22 17:45:00,44.6,38.2,29.82,West,279,5.0,26.0,78,0.00,,,0.38,Weather View 32 v70,2013-02-23 01:45:00,
2013-02-22 17:50:00,44.5,38.1,29.82,WNW,292,3.0,26.0,78,0.00,,,0.38,Weather View 32 v70,2013-02-23 01:50:00,
2013-02-22 17:55:00,44.6,38.2,29.82,WNW,289,4.0,20.0,78,0.00,,,0.38,Weather View 32 v70,2013-02-23 01:55:00,
2013-02-22 18:00:00,44.5,38.4,29.83,SSW,208,5.0,20.0,79,0.00,,,0.38,Weather View 32 v70,2013-02-23 02:00:00,
2013-02-22 18:05:00,44.5,38.4,29.83,WSW,257,7.0,20.0,79,0.01,,,0.39,Weather View 32 v70,2013-02-23 02:05:00,
2013-02-22 18:10:00,44.3,38.5,29.83,West,274,7.0,20.0,80,0.01,,,0.39,Weather View 32 v70,2013-02-23 02:10:00,
2013-02-22 18:15:00,44.2,38.4,29.82,West,271,6.0,19.0,80,0.01,,,0.39,Weather View 32 v70,2013-02-23 02:15:00,
2013-02-22 18:20:00,44.2,38.1,29.83,West,279,4.0,18.0,79,0.01,,,0.39,Weather View 32 v70,2013-02-23 02:20:00,
2013-02-22 18:25:00,44.3,37.5,29.83,SW,230,7.0,18.0,77,0.01,,,0.39,Weather View 32 v70,2013-02-23 02:25:00,
2013-02-22 18:30:00,44.6,37.5,29.83,WNW,287,4.0,18.0,76,0.01,,,0.39,Weather View 32 v70,2013-02-23 02:30:00,
2013-02-22 18:35:00,44.5,37.1,29.83,WNW,284,3.0,18.0,75,0.01,,,0.39,Weather View 32 v70,2013-02-23 02:35:00,
2013-02-22 18:40:00,44.6,36.8,29.83,West,269,4.0,18.0,74,0.01,,,0.39,Weather View 32 v70,2013-02-23 02:40:00,
2013-02-22 18:45:00,44.6,36.8,29.83,West,266,7.0,18.0,74,0.01,,,0.39,Weather View 32 v70,2013-02-23 02:45:00,
2013-02-22 18:50:00,44.5,36.7,29.83,West,278,5.0,18.0,74,0.01,,,0.39,Weather View 32 v70,2013-02-23 02:50:00,
2013-02-22 18:55:00,44.3,36.9,29.83,West,273,2.0,18.0,75,0.01,,,0.39,Weather View 32 v70,2013-02-23 02:55:00,
2013-02-22 19:00:00,44.2,36.4,29.83,WNW,292,5.0,13.0,74,0.01,,,0.39,Weather View 32 v70,2013-02-23 03:00:00,
2013-02-22 19:05:00,44.2,36.1,29.83,West,276,6.0,13.0,73,0.00,,,0.39,Weather View 32 v70,2013-02-23 03:05:00,
2013-02-22 19:10:00,44.3,35.5,29.83,West,276,3.0,14.0,71,0.00,,,0.39,Weather View 32 v70,2013-02-23 03:10:00,
2013-02-22 19:15:00,44.5,35.3,29.83,WNW,293,7.0,14.0,70,0.00,,,0.39,Weather View 32 v70,2013-02-23 03:15:00,
2013-02-22 19:20:00,44.3,35.1,29.83,NW,304,2.0,15.0,70,0.00,,,0.39,Weather View 32 v70,2013-02-23 03:20:00,
2013-02-22 19:25:00,44.2,35.0,29.84,WNW,286,4.0,15.0,70,0.00,,,0.39,Weather View 32 v70,2013-02-23 03:25:00,
2013-02-22 19:30:00,44.1,34.6,29.84,NW,305,4.0,15.0,69,0.00,,,0.39,Weather View 32 v70,2013-02-23 03:30:00,
2013-02-22 19:35:00,44.1,34.9,29.85,WNW,290,3.0,15.0,70,0.00,,,0.39,Weather View 32 v70,2013-02-23 03:35:00,
2013-02-22 19:40:00,44.1,34.6,29.85,West,274,2.0,15.0,69,0.00,,,0.39,Weather View 32 v70,2013-02-23 03:40:00,
2013-02-22 19:45:00,43.9,34.4,29.86,WNW,301,4.0,15.0,69,0.00,,,0.39,Weather View 32 v70,2013-02-23 03:45:00,
2013-02-22 19:50:00,43.8,34.6,29.86,WNW,301,1.0,15.0,70,0.00,,,0.39,Weather View 32 v70,2013-02-23 03:50:00,
2013-02-22 19:55:00,43.8,32.8,29.86,NW,319,4.0,20.0,65,0.00,,,0.39,Weather View 32 v70,2013-02-23 03:55:00,
2013-02-22 20:00:00,43.8,32.0,29.86,West,267,9.0,20.0,63,0.00,,,0.39,Weather View 32 v70,2013-02-23 04:00:00,
2013-02-22 20:05:00,43.8,31.6,29.86,WNW,286,4.0,23.0,62,0.00,,,0.39,Weather View 32 v70,2013-02-23 04:05:00,
2013-02-22 20:10:00,43.6,31.4,29.86,WNW,286,12.0,23.0,62,0.00,,,0.39,Weather View 32 v70,2013-02-23 04:10:00,
2013-02-22 20:15:00,43.3,31.5,29.86,WNW,296,5.0,23.0,63,0.00,,,0.39,Weather View 32 v70,2013-02-23 04:15:00,
2013-02-22 20:20:00,43.3,31.5,29.87,WNW,302,11.0,23.0,63,0.00,,,0.39,Weather View 32 v70,2013-02-23 04:20:00,
2013-02-22 20:25:00,43.3,31.5,29.87,WNW,290,9.0,23.0,63,0.00,,,0.39,Weather View 32 v70,2013-02-23 04:25:00,
2013-02-22 20:30:00,43.5,31.3,29.88,WNW,292,16.0,23.0,62,0.00,,,0.39,Weather View 32 v70,2013-02-23 04:30:00,
2013-02-22 20:35:00,43.3,31.5,29.88,West,276,4.0,23.0,63,0.00,,,0.39,Weather View 32 v70,2013-02-23 04:35:00,
2013-02-22 20:40:00,43.1,32.1,29.89,NW,304,3.0,23.0,65,0.00,,,0.39,Weather View 32 v70,2013-02-23 04:40:00,
2013-02-22 20:45:00,42.9,31.9,29.90,West,279,6.0,23.0,65,0.00,,,0.39,Weather View 32 v70,2013-02-23 04:45:00,
2013-02-22 20:50:00,43.1,31.7,29.90,West,273,7.0,23.0,64,0.00,,,0.39,Weather View 32 v70,2013-02-23 04:50:00,
2013-02-22 20:55:00,42.9,31.9,29.90,West,275,4.0,23.0,65,0.00,,,0.39,Weather View 32 v70,2013-02-23 04:55:00,
2013-02-22 21:00:00,42.8,31.8,29.91,WSW,237,6.0,23.0,65,0.00,,,0.39,Weather View 32 v70,2013-02-23 05:00:00,
2013-02-22 21:05:00,42.6,31.3,29.91,West,273,4.0,23.0,64,0.00,,,0.39,Weather View 32 v70,2013-02-23 05:05:00,
2013-02-22 21:10:00,42.3,31.4,29.92,WNW,300,5.0,23.0,65,0.00,,,0.39,Weather View 32 v70,2013-02-23 05:10:00,
2013-02-22 21:15:00,42.2,31.3,29.92,WSW,257,7.0,23.0,65,0.00,,,0.39,Weather View 32 v70,2013-02-23 05:15:00,
2013-02-22 21:20:00,42.2,31.3,29.93,West,263,10.0,23.0,65,0.00,,,0.39,Weather View 32 v70,2013-02-23 05:20:00,
2013-02-22 21:25:00,42.1,31.2,29.93,West,275,4.0,23.0,65,0.00,,,0.39,Weather View 32 v70,2013-02-23 05:25:00,
2013-02-22 21:30:00,41.9,31.0,29.94,WNW,297,2.0,20.0,65,0.00,,,0.39,Weather View 32 v70,2013-02-23 05:30:00,
2013-02-22 21:35:00,41.8,31.3,29.94,WNW,298,3.0,20.0,66,0.00,,,0.39,Weather View 32 v70,2013-02-23 05:35:00,
2013-02-22 21:40:00,41.8,30.5,29.93,NW,312,4.0,20.0,64,0.01,,,0.40,Weather View 32 v70,2013-02-23 05:40:00,
2013-02-22 21:45:00,41.9,30.6,29.93,West,264,2.0,20.0,64,0.01,,,0.40,Weather View 32 v70,2013-02-23 05:45:00,
2013-02-22 21:50:00,41.8,30.5,29.92,NW,305,3.0,20.0,64,0.01,,,0.40,Weather View 32 v70,2013-02-23 05:50:00,
2013-02-22 21:55:00,41.6,30.7,29.92,WSW,244,6.0,20.0,65,0.01,,,0.40,Weather View 32 v70,2013-02-23 05:55:00,
2013-02-22 22:00:00,41.6,30.7,29.92,West,264,7.0,20.0,65,0.01,,,0.40,Weather View 32 v70,2013-02-23 06:00:00,
2013-02-22 22:05:00,41.6,30.7,29.92,WNW,292,3.0,18.0,65,0.01,,,0.40,Weather View 32 v70,2013-02-23 06:05:00,
2013-02-22 22:10:00,41.5,31.0,29.92,WNW,290,5.0,18.0,66,0.01,,,0.40,Weather View 32 v70,2013-02-23 06:10:00,
2013-02-22 22:15:00,41.5,31.0,29.92,WNW,298,7.0,18.0,66,0.01,,,0.40,Weather View 32 v70,2013-02-23 06:15:00,
2013-02-22 22:20:00,41.2,31.1,29.91,SSW,206,3.0,18.0,67,0.01,,,0.40,Weather View 32 v70,2013-02-23 06:20:00,
2013-02-22 22:25:00,41.3,30.8,29.92,WNW,284,10.0,18.0,66,0.01,,,0.40,Weather View 32 v70,2013-02-23 06:25:00,
2013-02-22 22:30:00,41.3,30.8,29.93,West,264,6.0,18.0,66,0.01,,,0.40,Weather View 32 v70,2013-02-23 06:30:00,
2013-02-22 22:35:00,41.3,31.5,29.94,WSW,250,3.0,18.0,68,0.01,,,0.40,Weather View 32 v70,2013-02-23 06:35:00,
2013-02-22 22:40:00,41.2,31.4,29.94,West,269,2.0,18.0,68,0.00,,,0.40,Weather View 32 v70,2013-02-23 06:40:00,
2013-02-22 22:45:00,41.1,31.7,29.95,WNW,282,2.0,18.0,69,0.00,,,0.40,Weather View 32 v70,2013-02-23 06:45:00,
2013-02-22 22:50:00,41.1,32.1,29.95,West,276,4.0,18.0,70,0.00,,,0.40,Weather View 32 v70,2013-02-23 06:50:00,
2013-02-22 22:55:00,41.1,32.4,29.96,West,275,11.0,18.0,71,0.00,,,0.40,Weather View 32 v70,2013-02-23 06:55:00,
2013-02-22 23:00:00,41.1,33.1,29.97,WNW,283,8.0,18.0,73,0.00,,,0.40,Weather View 32 v70,2013-02-23 07:00:00,
2013-02-22 23:05:00,40.6,33.3,29.96,West,280,5.0,18.0,75,0.00,,,0.40,Weather View 32 v70,2013-02-23 07:05:00,
2013-02-22 23:10:00,40.2,33.6,29.96,WSW,250,6.0,19.0,77,0.00,,,0.40,Weather View 32 v70,2013-02-23 07:10:00,
2013-02-22 23:15:00,39.8,33.2,29.96,WNW,303,2.0,19.0,77,0.00,,,0.40,Weather View 32 v70,2013-02-23 07:15:00,
2013-02-22 23:20:00,39.3,33.0,29.96,WNW,299,9.0,22.0,78,0.00,,,0.40,Weather View 32 v70,2013-02-23 07:20:00,
2013-02-22 23:25:00,39.2,33.2,29.96,WNW,284,9.0,22.0,79,0.00,,,0.40,Weather View 32 v70,2013-02-23 07:25:00,
2013-02-22 23:30:00,38.9,32.9,29.95,WSW,247,6.0,22.0,79,0.00,,,0.40,Weather View 32 v70,2013-02-23 07:30:00,
2013-02-22 23:35:00,38.8,33.2,29.95,NW,326,5.0,22.0,80,0.00,,,0.40,Weather View 32 v70,2013-02-23 07:35:00,
2013-02-22 23:40:00,38.8,32.8,29.96,West,269,10.0,22.0,79,0.00,,,0.40,Weather View 32 v70,2013-02-23 07:40:00,
2013-02-22 23:45:00,38.9,32.3,29.95,NW,305,4.0,22.0,77,0.00,,,0.40,Weather View 32 v70,2013-02-23 07:45:00,
2013-02-22 23:50:00,39.1,31.8,29.96,West,275,3.0,22.0,75,0.00,,,0.40,Weather View 32 v70,2013-02-23 07:50:00,
2013-02-22 23:55:00,39.2,31.3,29.96,NW,305,5.0,22.0,73,0.00,,,0.40,Weather View 32 v70,2013-02-23 07:55:00,